Location: Brunsen
(51.8651°N, 9.8610°E)
Time: 21:42:14
(UTC+00:00)

CZ-2C R/B - Pass Details

Date: 13 August 2024
Orbit: 782 x 869 km, 98.3° (Epoch: 07 September)

Event Time Altitude Azimuth Distance (km) Brightness Sun altitude
Exits shadow 01:33:24 30° 197° (SSW) 1,483 3.4 -18.0°
Maximum altitude 01:35:57 54° 260° (W) 1,016 2.8 -17.8°
Drops below altitude 10° 01:41:17 10° 338° (NNW) 2,445 5.5 -17.3°
Sets 01:43:41 0° 343° (NNW) 3,369 6.4 -17.1°
